Precipitable_Water
0.44 0.44 0.44 0.44 0.44 0.44 0.44 0.44 0.46 0.46 0.46 0.46 0.46 0.44 0.44 0.44 0.46 0.46 0.46 0.46 0.46 0.46 0.48 0.48 0.48 0.48 0.48 0.48 0.48 0.48 0.48 0.48 0.46 0.46 0.44 0.42 0.42 0.40 0.40 0.40 0.38 0.38 0.36 0.36 0.36 0.36 0.34 0.34 0.32 0.30 0.30 0.28 0.28 0.28 0.28 0.28 0.28 0.26 0.26 0.26 0.24 0.24 0.24 0.22 0.22 0.22 0.22 0.20 0.20
0.44 0.44 0.44 0.44 0.44 0.44 0.44 0.46 0.46 0.46 0.44 0.44 0.44 0.44 0.44 0.44 0.46 0.46 0.46 0.46 0.46 0.46 0.48 0.48 0.48 0.48 0.48 0.48 0.48 0.48 0.46 0.46 0.44 0.44 0.42 0.40 0.40 0.38 0.38 0.36 0.36 0.34 0.34 0.34 0.32 0.32 0.32 0.32 0.30 0.30 0.28 0.28 0.28 0.28 0.28 0.28 0.28 0.26 0.26 0.26 0.26 0.24 0.24 0.24 0.24 0.24 0.22 0.22 0.22
0.46 0.46 0.46 0.44 0.44 0.44 0.46 0.46 0.46 0.44 0.44 0.44 0.46 0.46 0.46 0.46 0.46 0.46 0.46 0.46 0.46 0.48 0.48 0.48 0.48 0.48 0.48 0.48 0.48 0.46 0.46 0.44 0.44 0.42 0.40 0.38 0.36 0.36 0.34 0.34 0.32 0.32 0.30 0.30 0.30 0.30 0.30 0.30 0.28 0.28 0.28 0.28 0.28 0.28 0.28 0.26 0.26 0.26 0.26 0.26 0.24 0.24 0.24 0.24 0.24 0.24 0.24 0.24 0.22
0.46 0.46 0.46 0.44 0.44 0.44 0.44 0.46 0.46 0.46 0.46 0.48 0.48 0.48 0.48 0.48 0.48 0.48 0.48 0.48 0.48 0.48 0.48 0.48 0.48 0.48 0.48 0.48 0.46 0.46 0.44 0.42 0.40 0.40 0.38 0.36 0.34 0.32 0.32 0.32 0.30 0.30 0.28 0.28 0.28 0.28 0.28 0.28 0.28 0.28 0.26 0.26 0.26 0.26 0.26 0.26 0.26 0.26 0.26 0.26 0.26 0.24 0.24 0.24 0.24 0.24 0.24 0.24 0.24
0.48 0.46 0.46 0.44 0.44 0.46 0.46 0.48 0.48 0.48 0.48 0.50 0.48 0.48 0.48 0.46 0.48 0.48 0.48 0.50 0.50 0.48 0.48 0.48 0.48 0.48 0.46 0.44 0.44 0.42 0.40 0.38 0.38 0.36 0.36 0.34 0.32 0.32 0.30 0.30 0.30 0.30 0.28 0.28 0.28 0.28 0.28 0.28 0.28 0.28 0.26 0.26 0.26 0.26 0.26 0.26 0.26 0.26 0.26 0.26 0.26 0.26 0.24 0.24 0.24 0.24 0.24 0.24 0.24
0.48 0.48 0.46 0.46 0.48 0.48 0.50 0.50 0.48 0.48 0.48 0.48 0.48 0.46 0.46 0.48 0.48 0.48 0.48 0.48 0.48 0.48 0.48 0.46 0.46 0.44 0.42 0.42 0.40 0.38 0.36 0.36 0.34 0.34 0.34 0.32 0.32 0.30 0.30 0.30 0.30 0.30 0.30 0.30 0.28 0.28 0.28 0.28 0.28 0.28 0.28 0.28 0.28 0.26 0.26 0.26 0.26 0.26 0.24 0.24 0.24 0.26 0.26 0.26 0.24 0.24 0.24 0.24 0.24
0.48 0.48 0.48 0.48 0.48 0.48 0.50 0.50 0.50 0.48 0.48 0.48 0.48 0.48 0.48 0.48 0.50 0.50 0.50 0.48 0.48 0.48 0.46 0.46 0.42 0.40 0.40 0.38 0.36 0.36 0.34 0.32 0.32 0.32 0.32 0.32 0.30 0.30 0.30 0.30 0.30 0.28 0.28 0.28 0.28 0.28 0.28 0.28 0.28 0.28 0.28 0.28 0.28 0.28 0.28 0.26 0.26 0.26 0.26 0.24 0.24 0.26 0.26 0.26 0.26 0.26 0.24 0.24 0.24
0.50 0.48 0.48 0.48 0.48 0.48 0.48 0.48 0.50 0.48 0.48 0.48 0.48 0.50 0.50 0.50 0.50 0.50 0.48 0.48 0.46 0.46 0.44 0.42 0.40 0.40 0.38 0.36 0.36 0.34 0.34 0.32 0.32 0.32 0.32 0.32 0.30 0.30 0.30 0.30 0.30 0.28 0.28 0.28 0.28 0.28 0.26 0.26 0.26 0.26 0.26 0.26 0.26 0.28 0.28 0.28 0.26 0.26 0.26 0.26 0.26 0.26 0.26 0.26 0.26 0.26 0.26 0.24 0.24
0.50 0.48 0.48 0.48 0.48 0.48 0.48 0.48 0.48 0.48 0.48 0.50 0.50 0.50 0.50 0.50 0.48 0.48 0.46 0.46 0.44 0.44 0.44 0.42 0.40 0.38 0.38 0.36 0.36 0.34 0.34 0.34 0.32 0.32 0.32 0.32 0.32 0.32 0.30 0.30 0.30 0.30 0.30 0.28 0.30 0.30 0.28 0.28 0.28 0.28 0.26 0.26 0.26 0.26 0.26 0.26 0.26 0.26 0.26 0.26 0.26 0.26 0.26 0.26 0.26 0.26 0.26 0.26 0.24
0.48 0.48 0.48 0.48 0.48 0.48 0.48 0.48 0.48 0.50 0.50 0.50 0.50 0.50 0.48 0.48 0.46 0.44 0.44 0.44 0.44 0.44 0.42 0.42 0.40 0.38 0.36 0.36 0.36 0.36 0.34 0.34 0.34 0.32 0.32 0.32 0.32 0.32 0.32 0.30 0.30 0.30 0.30 0.30 0.28 0.26 0.26 0.26 0.26 0.26 0.26 0.26 0.26 0.26 0.26 0.26 0.24 0.24 0.26 0.26 0.26 0.26 0.26 0.26 0.26 0.26 0.26 0.26 0.26
0.48 0.48 0.48 0.48 0.48 0.50 0.50 0.50 0.50 0.50 0.48 0.48 0.46 0.46 0.46 0.46 0.44 0.44 0.44 0.44 0.42 0.40 0.40 0.38 0.36 0.36 0.34 0.34 0.34 0.34 0.32 0.32 0.32 0.32 0.30 0.30 0.30 0.30 0.28 0.28 0.28 0.26 0.26 0.24 0.24 0.24 0.22 0.22 0.22 0.22 0.22 0.24 0.24 0.24 0.24 0.24 0.22 0.22 0.24 0.24 0.24 0.24 0.26 0.26 0.26 0.26 0.26 0.26 0.26
0.48 0.48 0.48 0.50 0.50 0.50 0.50 0.50 0.50 0.48 0.48 0.46 0.46 0.46 0.46 0.44 0.44 0.44 0.42 0.40 0.40 0.38 0.36 0.36 0.34 0.32 0.32 0.32 0.32 0.32 0.30 0.30 0.30 0.30 0.28 0.28 0.28 0.26 0.26 0.26 0.24 0.24 0.22 0.22 0.22 0.22 0.22 0.20 0.20 0.20 0.20 0.20 0.22 0.22 0.22 0.22 0.22 0.22 0.22 0.22 0.22 0.22 0.24 0.24 0.24 0.26 0.26 0.26 0.26
0.48 0.48 0.50 0.50 0.52 0.50 0.50 0.50 0.48 0.48 0.46 0.46 0.46 0.46 0.46 0.44 0.44 0.42 0.40 0.38 0.36 0.36 0.34 0.34 0.32 0.32 0.32 0.30 0.30 0.30 0.30 0.30 0.28 0.28 0.28 0.26 0.26 0.26 0.24 0.24 0.22 0.22 0.20 0.20 0.22 0.22 0.22 0.20 0.20 0.20 0.20 0.20 0.20 0.22 0.22 0.22 0.22 0.22 0.22 0.22 0.22 0.22 0.22 0.22 0.24 0.24 0.24 0.24 0.26
0.48 0.50 0.50 0.50 0.50 0.50 0.50 0.48 0.48 0.48 0.46 0.46 0.46 0.46 0.44 0.44 0.44 0.40 0.38 0.36 0.36 0.34 0.32 0.32 0.32 0.32 0.30 0.30 0.30 0.30 0.30 0.30 0.28 0.28 0.26 0.26 0.26 0.24 0.24 0.22 0.22 0.22 0.22 0.22 0.22 0.22 0.22 0.22 0.22 0.20 0.20 0.20 0.20 0.22 0.22 0.22 0.22 0.22 0.22 0.22 0.22 0.22 0.22 0.22 0.22 0.24 0.24 0.24 0.26
0.50 0.50 0.50 0.50 0.50 0.50 0.48 0.48 0.48 0.46 0.46 0.46 0.46 0.44 0.44 0.42 0.40 0.38 0.36 0.36 0.34 0.34 0.32 0.32 0.32 0.32 0.32 0.32 0.30 0.30 0.30 0.30 0.28 0.28 0.26 0.26 0.24 0.24 0.22 0.22 0.22 0.22 0.22 0.22 0.22 0.22 0.22 0.22 0.22 0.22 0.22 0.22 0.22 0.22 0.22 0.22 0.22 0.22 0.22 0.22 0.22 0.22 0.22 0.22 0.24 0.24 0.24 0.24 0.26
0.48 0.50 0.50 0.50 0.48 0.48 0.48 0.48 0.48 0.46 0.46 0.44 0.44 0.42 0.42 0.40 0.38 0.38 0.36 0.34 0.34 0.32 0.32 0.32 0.32 0.32 0.32 0.32 0.32 0.32 0.30 0.30 0.28 0.28 0.26 0.24 0.24 0.22 0.22 0.22 0.20 0.22 0.22 0.22 0.22 0.22 0.22 0.22 0.22 0.22 0.22 0.22 0.22 0.22 0.22 0.22 0.22 0.22 0.22 0.22 0.22 0.22 0.24 0.24 0.24 0.24 0.24 0.26 0.26
0.48 0.48 0.48 0.48 0.48 0.48 0.48 0.46 0.46 0.46 0.44 0.42 0.42 0.40 0.40 0.38 0.38 0.36 0.34 0.34 0.32 0.32 0.32 0.32 0.34 0.34 0.34 0.32 0.32 0.32 0.30 0.30 0.28 0.28 0.26 0.24 0.22 0.22 0.22 0.22 0.22 0.22 0.22 0.22 0.22 0.22 0.22 0.22 0.22 0.22 0.22 0.22 0.22 0.22 0.22 0.22 0.24 0.24 0.24 0.24 0.24 0.24 0.24 0.24 0.26 0.26 0.26 0.26 0.26
0.48 0.48 0.48 0.48 0.48 0.46 0.46 0.46 0.44 0.44 0.42 0.40 0.40 0.38 0.38 0.38 0.36 0.34 0.34 0.34 0.34 0.34 0.34 0.34 0.34 0.34 0.34 0.34 0.32 0.32 0.30 0.30 0.28 0.26 0.24 0.22 0.22 0.22 0.22 0.22 0.22 0.22 0.22 0.22 0.22 0.22 0.22 0.22 0.22 0.22 0.22 0.22 0.24 0.24 0.24 0.24 0.24 0.24 0.24 0.24 0.24 0.24 0.26 0.26 0.26 0.26 0.26 0.26 0.26
0.46 0.46 0.46 0.46 0.46 0.44 0.44 0.44 0.42 0.42 0.40 0.40 0.38 0.38 0.36 0.36 0.34 0.34 0.34 0.34 0.34 0.34 0.34 0.34 0.34 0.34 0.34 0.32 0.32 0.30 0.30 0.28 0.28 0.26 0.24 0.24 0.22 0.22 0.22 0.22 0.22 0.22 0.22 0.22 0.22 0.22 0.22 0.22 0.22 0.22 0.22 0.24 0.24 0.24 0.24 0.24 0.24 0.24 0.26 0.26 0.26 0.26 0.26 0.28 0.28 0.28 0.28 0.28 0.28
0.46 0.46 0.44 0.44 0.44 0.42 0.42 0.42 0.42 0.40 0.38 0.38 0.36 0.36 0.36 0.34 0.34 0.34 0.34 0.34 0.34 0.36 0.36 0.34 0.34 0.34 0.32 0.32 0.30 0.30 0.28 0.28 0.26 0.26 0.24 0.24 0.24 0.22 0.22 0.22 0.22 0.22 0.22 0.22 0.22 0.22 0.22 0.22 0.22 0.24 0.24 0.24 0.24 0.24 0.24 0.26 0.26 0.26 0.26 0.26 0.26 0.26 0.28 0.28 0.28 0.28 0.30 0.30 0.30
0.46 0.44 0.44 0.44 0.42 0.42 0.42 0.40 0.40 0.40 0.38 0.36 0.36 0.36 0.34 0.34 0.34 0.34 0.34 0.36 0.36 0.36 0.36 0.34 0.34 0.32 0.32 0.30 0.28 0.28 0.26 0.26 0.26 0.24 0.24 0.24 0.24 0.24 0.24 0.24 0.24 0.22 0.22 0.22 0.22 0.22 0.22 0.24 0.24 0.24 0.24 0.24 0.24 0.26 0.26 0.26 0.26 0.26 0.26 0.26 0.28 0.28 0.28 0.28 0.28 0.28 0.30 0.30 0.30
0.44 0.44 0.44 0.42 0.42 0.42 0.40 0.40 0.40 0.38 0.36 0.36 0.36 0.36 0.36 0.36 0.36 0.36 0.36 0.36 0.36 0.36 0.34 0.34 0.32 0.30 0.30 0.28 0.26 0.26 0.24 0.24 0.24 0.24 0.24 0.24 0.24 0.24 0.24 0.24 0.24 0.24 0.24 0.24 0.24 0.24 0.24 0.24 0.24 0.24 0.24 0.26 0.26 0.26 0.26 0.26 0.26 0.26 0.26 0.26 0.26 0.26 0.28 0.28 0.28 0.28 0.28 0.30 0.30
0.44 0.44 0.42 0.42 0.42 0.42 0.40 0.40 0.38 0.38 0.36 0.36 0.36 0.36 0.36 0.36 0.36 0.36 0.36 0.36 0.36 0.34 0.34 0.32 0.30 0.30 0.28 0.26 0.26 0.24 0.24 0.24 0.22 0.22 0.22 0.22 0.22 0.24 0.24 0.24 0.24 0.24 0.24 0.24 0.24 0.24 0.24 0.24 0.24 0.26 0.26 0.26 0.26 0.26 0.26 0.26 0.26 0.26 0.24 0.26 0.26 0.26 0.26 0.28 0.28 0.28 0.30 0.30 0.30
0.44 0.44 0.42 0.42 0.42 0.40 0.40 0.40 0.38 0.36 0.36 0.36 0.36 0.34 0.34 0.36 0.36 0.36 0.36 0.34 0.34 0.32 0.32 0.30 0.30 0.28 0.26 0.26 0.24 0.24 0.22 0.22 0.22 0.22 0.22 0.22 0.22 0.22 0.24 0.24 0.24 0.24 0.24 0.24 0.24 0.24 0.24 0.24 0.24 0.24 0.24 0.24 0.24 0.24 0.24 0.24 0.24 0.24 0.24 0.24 0.26 0.26 0.28 0.28 0.30 0.30 0.30 0.32 0.32
0.44 0.42 0.42 0.42 0.40 0.40 0.40 0.38 0.38 0.36 0.36 0.36 0.34 0.34 0.34 0.34 0.34 0.34 0.34 0.32 0.32 0.30 0.30 0.28 0.28 0.26 0.26 0.24 0.24 0.22 0.22 0.22 0.22 0.22 0.22 0.22 0.22 0.22 0.22 0.22 0.22 0.22 0.22 0.24 0.24 0.24 0.24 0.24 0.24 0.24 0.24 0.24 0.24 0.24 0.24 0.24 0.24 0.24 0.26 0.26 0.26 0.28 0.28 0.30 0.30 0.30 0.32 0.32 0.32
0.42 0.42 0.42 0.40 0.40 0.40 0.40 0.38 0.38 0.36 0.36 0.36 0.34 0.34 0.34 0.34 0.34 0.34 0.32 0.30 0.30 0.28 0.28 0.26 0.26 0.24 0.24 0.24 0.22 0.22 0.22 0.22 0.22 0.22 0.22 0.22 0.22 0.22 0.22 0.22 0.22 0.22 0.22 0.24 0.24 0.24 0.24 0.24 0.24 0.26 0.26 0.26 0.24 0.24 0.24 0.26 0.26 0.26 0.26 0.28 0.28 0.30 0.30 0.30 0.30 0.32 0.32 0.32 0.32
0.42 0.42 0.40 0.40 0.40 0.40 0.40 0.38 0.36 0.36 0.36 0.34 0.34 0.34 0.34 0.32 0.32 0.32 0.30 0.28 0.28 0.26 0.26 0.24 0.24 0.24 0.22 0.22 0.22 0.22 0.22 0.22 0.22 0.22 0.22 0.20 0.20 0.20 0.20 0.20 0.20 0.22 0.22 0.22 0.24 0.24 0.24 0.24 0.26 0.26 0.26 0.26 0.26 0.26 0.26 0.26 0.28 0.28 0.28 0.28 0.30 0.30 0.30 0.30 0.30 0.32 0.32 0.32 0.34
0.40 0.40 0.40 0.40 0.40 0.40 0.40 0.38 0.36 0.34 0.34 0.34 0.34 0.32 0.32 0.32 0.30 0.30 0.28 0.28 0.26 0.24 0.24 0.22 0.22 0.22 0.22 0.20 0.20 0.20 0.20 0.20 0.20 0.20 0.20 0.20 0.20 0.20 0.20 0.20 0.20 0.22 0.22 0.24 0.24 0.24 0.24 0.26 0.26 0.26 0.26 0.26 0.26 0.28 0.28 0.28 0.28 0.30 0.30 0.30 0.30 0.32 0.32 0.32 0.32 0.32 0.32 0.32 0.34
0.40 0.40 0.40 0.42 0.40 0.40 0.38 0.38 0.36 0.34 0.34 0.34 0.32 0.32 0.32 0.30 0.30 0.28 0.26 0.26 0.24 0.22 0.22 0.22 0.20 0.20 0.20 0.20 0.20 0.20 0.20 0.20 0.20 0.20 0.18 0.18 0.18 0.20 0.20 0.20 0.20 0.22 0.22 0.24 0.24 0.24 0.24 0.26 0.26 0.26 0.26 0.28 0.28 0.28 0.30 0.30 0.30 0.30 0.30 0.30 0.32 0.32 0.32 0.32 0.32 0.32 0.32 0.32 0.34
0.42 0.42 0.42 0.42 0.40 0.38 0.38 0.36 0.34 0.34 0.34 0.34 0.32 0.32 0.30 0.30 0.28 0.26 0.24 0.24 0.22 0.20 0.20 0.20 0.18 0.18 0.18 0.18 0.18 0.18 0.18 0.18 0.18 0.18 0.18 0.18 0.18 0.18 0.18 0.20 0.20 0.22 0.22 0.24 0.24 0.24 0.26 0.26 0.26 0.26 0.28 0.28 0.30 0.30 0.30 0.30 0.32 0.32 0.32 0.32 0.32 0.32 0.32 0.32 0.32 0.32 0.32 0.32 0.32
0.42 0.42 0.40 0.38 0.38 0.38 0.36 0.34 0.34 0.34 0.34 0.34 0.32 0.30 0.30 0.28 0.26 0.24 0.22 0.20 0.20 0.20 0.18 0.18 0.18 0.18 0.18 0.18 0.18 0.16 0.16 0.16 0.16 0.16 0.16 0.16 0.18 0.18 0.18 0.20 0.20 0.22 0.22 0.24 0.24 0.24 0.26 0.26 0.28 0.28 0.30 0.30 0.30 0.32 0.32 0.32 0.32 0.32 0.32 0.32 0.32 0.32 0.32 0.34 0.34 0.34 0.34 0.34 0.34
0.40 0.40 0.38 0.38 0.36 0.36 0.34 0.34 0.34 0.34 0.34 0.32 0.32 0.30 0.28 0.24 0.24 0.22 0.20 0.20 0.20 0.18 0.18 0.18 0.18 0.18 0.16 0.16 0.16 0.16 0.16 0.15 0.16 0.16 0.16 0.18 0.18 0.18 0.20 0.20 0.22 0.22 0.24 0.24 0.24 0.24 0.26 0.28 0.28 0.30 0.30 0.32 0.32 0.32 0.32 0.32 0.34 0.32 0.34 0.34 0.34 0.34 0.34 0.34 0.34 0.34 0.34 0.34 0.34
0.40 0.38 0.38 0.36 0.36 0.34 0.34 0.34 0.34 0.34 0.32 0.30 0.28 0.26 0.26 0.24 0.22 0.20 0.20 0.20 0.20 0.18 0.18 0.18 0.16 0.16 0.16 0.15 0.15 0.15 0.15 0.15 0.16 0.16 0.18 0.18 0.18 0.20 0.20 0.22 0.22 0.22 0.24 0.24 0.24 0.26 0.28 0.30 0.30 0.32 0.32 0.32 0.34 0.34 0.34 0.34 0.34 0.34 0.34 0.34 0.34 0.34 0.34 0.34 0.34 0.34 0.34 0.34 0.36
0.40 0.38 0.38 0.36 0.36 0.36 0.34 0.34 0.34 0.32 0.30 0.28 0.26 0.26 0.24 0.22 0.20 0.20 0.20 0.18 0.18 0.18 0.16 0.16 0.16 0.16 0.15 0.15 0.15 0.15 0.15 0.15 0.16 0.16 0.18 0.18 0.20 0.20 0.22 0.22 0.22 0.24 0.24 0.26 0.26 0.28 0.28 0.30 0.32 0.32 0.34 0.34 0.34 0.34 0.34 0.34 0.34 0.34 0.34 0.34 0.34 0.34 0.34 0.36 0.36 0.36 0.36 0.36 0.36
0.38 0.38 0.36 0.36 0.36 0.36 0.36 0.34 0.32 0.30 0.28 0.26 0.24 0.24 0.22 0.20 0.20 0.20 0.18 0.18 0.18 0.16 0.16 0.16 0.15 0.15 0.15 0.15 0.15 0.15 0.15 0.16 0.16 0.18 0.18 0.20 0.20 0.22 0.22 0.22 0.22 0.24 0.24 0.26 0.28 0.28 0.30 0.30 0.32 0.32 0.34 0.34 0.34 0.34 0.34 0.34 0.34 0.34 0.34 0.34 0.34 0.34 0.34 0.36 0.36 0.36 0.36 0.36 0.36
0.38 0.38 0.36 0.36 0.36 0.36 0.34 0.34 0.30 0.28 0.26 0.24 0.24 0.22 0.20 0.20 0.20 0.18 0.18 0.18 0.18 0.16 0.15 0.15 0.15 0.15 0.15 0.15 0.15 0.15 0.16 0.16 0.16 0.18 0.18 0.20 0.20 0.22 0.22 0.22 0.24 0.24 0.26 0.28 0.28 0.30 0.30 0.32 0.32 0.34 0.34 0.34 0.34 0.34 0.34 0.34 0.34 0.34 0.34 0.34 0.34 0.34 0.34 0.36 0.36 0.36 0.36 0.36 0.36
0.36 0.36 0.36 0.36 0.36 0.34 0.34 0.30 0.28 0.26 0.24 0.22 0.22 0.20 0.20 0.18 0.18 0.18 0.18 0.18 0.16 0.16 0.15 0.15 0.13 0.13 0.15 0.15 0.15 0.15 0.16 0.16 0.18 0.18 0.18 0.20 0.20 0.22 0.22 0.22 0.24 0.26 0.28 0.30 0.30 0.32 0.32 0.32 0.34 0.34 0.34 0.34 0.34 0.34 0.34 0.34 0.34 0.34 0.34 0.34 0.34 0.34 0.34 0.36 0.36 0.36 0.36 0.38 0.38
0.36 0.36 0.36 0.36 0.34 0.34 0.32 0.28 0.26 0.24 0.22 0.22 0.20 0.20 0.18 0.18 0.18 0.16 0.16 0.16 0.16 0.15 0.15 0.13 0.13 0.15 0.15 0.15 0.15 0.16 0.16 0.18 0.18 0.18 0.20 0.20 0.20 0.22 0.22 0.24 0.26 0.28 0.28 0.30 0.32 0.32 0.32 0.34 0.34 0.34 0.34 0.34 0.34 0.34 0.34 0.34 0.34 0.34 0.34 0.34 0.34 0.34 0.36 0.36 0.36 0.38 0.38 0.38 0.38
0.36 0.36 0.36 0.34 0.34 0.32 0.30 0.26 0.24 0.22 0.22 0.20 0.20 0.18 0.18 0.18 0.16 0.16 0.16 0.16 0.15 0.15 0.15 0.13 0.15 0.15 0.15 0.15 0.16 0.16 0.16 0.18 0.18 0.20 0.20 0.20 0.22 0.22 0.24 0.24 0.26 0.28 0.30 0.32 0.32 0.32 0.34 0.34 0.34 0.34 0.36 0.36 0.34 0.34 0.34 0.34 0.34 0.34 0.34 0.34 0.34 0.36 0.36 0.36 0.38 0.38 0.38 0.38 0.38
0.36 0.36 0.34 0.34 0.32 0.30 0.28 0.24 0.22 0.22 0.20 0.20 0.18 0.18 0.16 0.16 0.16 0.16 0.16 0.15 0.15 0.15 0.15 0.15 0.15 0.15 0.15 0.16 0.16 0.16 0.18 0.18 0.20 0.20 0.20 0.22 0.22 0.24 0.26 0.26 0.28 0.30 0.30 0.32 0.32 0.34 0.34 0.34 0.34 0.36 0.36 0.36 0.36 0.36 0.36 0.34 0.34 0.34 0.34 0.34 0.34 0.34 0.34 0.36 0.36 0.36 0.36 0.36 0.38
0.36 0.36 0.34 0.32 0.30 0.28 0.26 0.22 0.22 0.20 0.20 0.18 0.18 0.16 0.16 0.16 0.16 0.16 0.15 0.15 0.15 0.15 0.15 0.15 0.15 0.15 0.16 0.16 0.16 0.18 0.18 0.18 0.20 0.20 0.22 0.22 0.24 0.26 0.26 0.28 0.28 0.30 0.30 0.32 0.32 0.34 0.34 0.34 0.34 0.36 0.36 0.36 0.36 0.36 0.36 0.36 0.34 0.34 0.32 0.32 0.32 0.32 0.34 0.34 0.34 0.34 0.36 0.36 0.36
Wind_Speed
34 34 34 34 34 34 34 33 33 33 32 32 31 32 32 32 32 33 33 33 34 34 34 35 36 36 37 38 38 39 39 39 40 40 40 41 41 41 41 41 41 41 41 41 40 40 40 39 39 39 39 39 39 39 39 39 39 39 40 40 40 40 41 41 42 42 43 43 43
34 33 33 33 33 33 33 33 33 32 32 32 32 32 32 32 33 33 34 34 34 35 35 36 37 37 38 39 39 39 39 40 40 40 41 41 41 41 41 41 41 41 41 40 40 39 39 39 39 39 39 39 39 39 40 40 40 40 41 41 41 41 41 42 42 43 43 43 43
33 33 33 33 32 32 32 32 32 32 32 31 31 31 32 32 33 34 34 35 36 36 36 37 37 38 39 39 39 40 40 40 40 41 41 41 41 41 41 40 40 40 40 39 39 39 39 39 39 39 39 40 40 40 40 40 40 41 41 42 41 41 42 42 42 43 43 43 43
33 32 32 32 32 32 32 32 32 31 31 31 31 31 32 32 33 34 35 36 36 37 37 37 38 39 39 40 40 40 40 41 41 41 41 41 40 40 40 40 39 39 39 39 39 39 40 40 40 40 40 41 41 41 41 41 41 41 41 41 42 42 42 42 43 43 43 43 44
32 32 31 31 31 31 32 32 31 31 31 31 31 32 32 33 34 35 36 36 37 37 38 38 39 40 40 41 41 41 41 41 41 40 40 40 40 39 39 39 39 39 39 39 40 40 41 41 41 41 41 41 41 41 41 41 42 42 42 42 42 42 42 43 43 43 43 44 44
31 31 31 31 31 31 32 32 31 31 31 32 32 33 33 34 35 35 36 37 37 38 39 40 40 41 41 42 41 41 41 41 40 40 39 39 39 39 39 39 39 39 40 40 41 41 41 41 41 41 41 41 42 42 42 42 42 42 42 42 42 42 43 43 43 44 44 45 45
30 30 30 30 31 31 32 32 32 32 32 33 33 34 35 35 36 36 37 38 38 39 40 40 41 41 42 42 41 41 41 40 40 39 39 39 39 39 39 40 40 40 41 41 41 42 42 42 41 41 42 42 42 42 42 42 42 43 43 43 43 43 43 44 44 44 45 46 46
29 29 30 30 31 32 32 32 33 33 33 34 34 35 36 36 37 37 38 38 39 39 40 41 42 42 42 42 42 41 41 40 40 40 39 39 40 40 40 41 41 42 42 42 42 42 42 42 42 42 42 42 42 42 43 43 43 43 44 44 44 44 44 44 45 45 46 47 47
29 29 30 31 32 33 33 34 34 34 34 35 35 35 36 36 36 37 38 38 39 40 40 41 42 42 42 42 42 41 41 40 40 40 40 40 41 41 41 42 42 42 43 43 43 43 43 42 42 42 42 42 43 43 43 44 44 45 45 45 45 45 45 45 46 46 47 47 48
29 30 31 32 33 34 34 35 35 35 35 35 35 35 35 36 36 37 38 38 39 40 41 41 42 42 42 42 41 41 40 40 40 40 40 41 41 42 42 42 43 43 43 43 43 43 43 43 43 43 43 43 44 44 45 45 45 46 46 46 46 47 47 47 47 47 48 48 48
30 31 32 33 34 34 35 35 35 35 35 35 35 35 35 35 36 37 38 39 40 40 41 41 41 41 41 41 40 40 40 40 40 40 41 41 42 43 43 43 44 44 44 44 43 43 43 43 44 44 44 45 45 45 46 46 47 47 48 48 48 48 48 48 48 48 48 49 49
31 32 33 33 34 35 35 35 35 35 35 34 34 35 35 36 37 38 39 40 40 41 41 41 41 41 40 40 40 40 40 40 41 41 42 43 43 44 44 44 44 44 44 44 44 44 44 44 45 45 46 46 46 46 46 47 47 48 48 49 49 49 49 49 49 49 49 49 50
31 32 32 33 34 34 35 35 35 34 34 34 34 35 36 37 38 38 39 40 40 41 41 41 40 40 40 39 40 40 40 41 41 42 43 43 44 44 45 45 45 45 45 45 44 44 44 45 45 46 46 47 47 47 47 47 48 48 48 49 49 49 49 50 50 50 50 50 50
31 32 32 33 34 34 34 34 34 34 34 34 35 35 36 37 38 38 39 39 40 40 40 40 39 39 39 39 40 40 41 42 42 43 44 44 45 45 45 45 45 45 45 45 45 45 45 46 46 47 47 47 47 47 48 48 48 48 49 49 49 49 50 50 50 50 50 50 51
31 32 33 33 34 34 34 34 34 34 34 35 35 36 37 37 38 38 39 39 39 40 39 39 39 39 39 40 40 41 42 43 43 44 45 45 45 46 46 46 46 45 45 45 46 46 46 46 47 47 47 48 48 48 48 48 48 48 49 49 49 50 50 50 50 50 50 50 50
32 33 33 33 33 33 33 33 33 34 34 35 35 36 37 37 38 38 39 39 39 39 39 39 39 39 39 40 41 42 43 43 44 45 45 46 46 46 46 46 46 46 46 46 46 46 47 47 47 47 48 48 48 48 48 48 49 49 49 49 50 50 50 50 50 50 50 50 50
33 33 33 33 33 33 33 34 34 34 34 35 35 36 37 37 38 38 38 38 38 38 39 39 39 39 40 41 42 42 43 44 45 45 45 46 46 46 46 46 46 46 46 46 47 47 47 47 47 47 48 48 48 48 49 49 49 49 50 50 50 50 50 50 50 49 49 49 49
33 33 33 33 33 33 33 33 33 34 34 35 35 36 37 37 38 38 38 38 38 38 39 39 40 40 41 42 43 43 44 45 45 46 46 46 46 46 46 46 46 46 46 47 47 47 47 48 48 48 48 48 49 49 49 49 49 49 50 50 50 50 49 49 49 48 48 47 47
33 33 33 33 33 33 33 33 33 34 34 35 36 36 37 37 38 38 38 38 38 38 39 40 40 41 42 43 44 44 45 45 46 46 46 46 46 46 46 46 46 46 46 46 47 47 47 48 48 48 48 48 49 49 49 49 49 49 49 49 49 49 48 48 47 46 46 45 44
33 33 33 33 33 33 33 33 33 33 34 35 36 36 37 37 37 38 38 38 38 39 39 40 41 42 43 44 45 45 46 46 46 47 47 46 46 46 46 46 46 46 46 47 47 47 47 48 48 48 48 49 49 49 49 49 49 49 48 48 47 47 46 45 44 43 42 42 41
33 33 33 33 32 32 32 32 33 33 34 35 36 36 37 37 37 38 38 38 39 39 40 41 42 43 44 45 45 46 46 46 46 46 46 46 46 46 46 46 46 46 46 46 47 47 47 48 48 48 48 48 48 48 48 48 47 47 46 45 44 44 43 42 41 40 39 38 37
33 33 32 32 32 31 32 32 33 34 34 35 36 36 36 37 37 38 38 39 39 40 41 42 43 44 45 45 46 47 47 47 46 46 46 46 46 46 46 46 46 46 46 47 47 47 48 48 48 48 48 48 47 47 46 45 45 44 43 43 42 41 40 39 38 37 37 36 36
32 32 31 31 31 31 32 32 33 34 34 35 35 36 36 37 37 38 38 39 40 40 41 42 43 44 45 46 47 47 47 47 46 46 46 46 46 46 46 46 46 46 47 47 47 47 47 47 47 47 46 46 45 44 44 43 42 42 41 40 40 39 38 37 36 35 34 34 34
32 31 30 30 30 31 31 32 33 33 34 34 35 36 36 37 38 38 39 40 40 41 42 43 44 45 46 47 47 47 47 46 46 46 45 45 45 45 45 45 46 46 47 46 46 46 46 46 45 45 44 43 43 42 41 41 40 40 39 38 37 36 35 34 34 33 33 33 33
31 30 30 30 30 31 31 32 32 33 34 35 35 36 37 37 38 39 39 40 41 42 44 45 45 46 46 47 47 46 46 45 45 45 45 45 45 45 45 45 46 46 46 46 46 46 45 44 43 43 42 41 41 40 40 39 38 38 37 36 35 34 33 33 33 32 32 32 32
29 29 29 29 30 30 31 32 32 33 34 35 36 36 37 37 38 39 40 41 42 43 44 45 46 46 46 46 46 45 45 44 44 44 44 45 45 45 45 45 46 46 46 46 45 44 43 42 41 40 40 39 39 39 38 37 37 36 35 34 33 33 32 32 32 32 32 32 32
28 28 28 29 29 30 31 32 33 34 34 35 36 36 37 38 39 40 41 42 44 44 45 46 46 46 45 45 45 44 44 44 44 44 44 45 45 46 46 46 46 45 45 45 44 43 41 40 39 39 38 38 37 37 36 35 35 34 33 33 32 32 32 32 32 32 32 32 32
27 28 28 29 30 30 31 32 33 34 34 35 36 37 38 39 40 41 42 43 44 45 45 45 45 45 44 43 43 43 43 43 44 44 45 45 46 46 46 46 45 45 44 43 42 40 39 38 38 38 37 37 36 36 35 34 33 32 32 31 31 31 32 32 32 32 32 32 32
27 28 28 29 30 31 32 33 33 34 34 35 36 38 39 40 41 42 43 44 45 45 45 44 44 43 43 43 43 43 44 44 45 45 45 46 46 46 46 45 44 43 42 41 39 38 38 37 37 37 37 36 35 33 33 32 31 31 31 30 30 31 31 31 31 31 32 32 32
27 28 28 29 30 31 32 32 33 34 35 36 38 39 40 41 42 43 44 44 45 44 44 44 43 43 43 43 43 44 44 44 45 45 45 46 46 45 45 44 43 41 40 38 37 37 37 37 36 36 35 34 33 32 31 30 30 30 30 30 30 31 31 31 32 32 32 32 33
27 28 28 29 30 31 32 33 33 35 36 37 39 40 41 42 43 43 44 44 44 44 44 43 43 43 43 43 44 44 44 45 45 45 45 45 45 44 43 42 41 39 38 37 36 36 36 35 35 34 33 32 31 30 30 30 30 30 30 30 31 31 32 32 32 33 33 33 33
27 28 29 30 30 31 32 33 35 36 37 39 40 41 42 43 43 44 44 44 44 44 43 43 43 43 43 44 44 44 45 45 45 44 44 44 43 42 41 40 38 37 36 36 35 35 34 34 33 32 31 31 30 29 29 29 30 30 30 31 31 32 32 32 32 33 33 33 33
27 28 29 30 31 32 33 35 36 37 39 40 41 42 42 43 44 44 44 43 43 43 42 42 43 43 43 44 44 44 44 44 44 44 43 42 41 40 39 38 36 35 35 35 34 34 33 32 31 31 30 30 29 29 29 29 29 30 30 31 31 31 32 32 32 33 33 33 33
28 29 30 31 32 33 35 36 38 39 40 41 41 42 43 43 44 44 43 43 42 42 42 42 42 43 43 44 44 44 44 43 43 42 41 40 39 38 37 36 35 34 34 34 33 32 31 31 30 30 29 29 28 28 28 29 29 29 30 30 31 31 32 32 32 33 33 33 34
28 29 30 32 33 35 36 38 39 40 40 41 42 43 43 43 43 43 42 42 42 42 42 42 43 43 43 44 44 43 43 42 42 40 39 38 37 36 35 35 34 33 33 32 32 31 30 30 29 28 28 28 27 27 28 28 29 29 30 31 31 32 32 32 32 33 33 34 34
29 30 32 33 35 36 37 38 39 40 41 42 42 43 43 43 42 42 42 41 41 42 42 42 43 43 43 43 43 42 41 41 40 39 37 36 35 35 34 34 33 32 32 31 30 30 29 28 28 27 27 27 27 27 28 28 29 29 30 31 31 32 32 32 33 33 33 34 34
30 32 33 35 36 37 38 39 40 41 41 42 42 43 42 42 42 41 41 41 41 42 42 43 43 43 43 42 42 41 40 39 38 37 36 35 34 34 33 33 32 31 30 30 29 28 28 27 27 27 27 27 27 27 28 28 29 29 30 31 31 32 32 32 33 33 33 34 34
32 33 34 36 37 38 39 39 40 41 42 42 42 42 42 41 41 41 41 41 42 42 43 43 43 42 42 41 41 39 38 37 36 35 34 34 33 32 32 32 31 30 29 28 28 27 27 26 26 26 27 27 27 28 28 28 29 30 30 31 31 32 32 32 32 32 33 34 34
33 34 35 36 37 38 39 40 41 41 41 42 42 41 41 41 41 41 41 41 42 42 43 43 42 42 41 40 39 38 36 35 34 33 33 32 32 31 31 30 30 29 28 27 27 26 26 26 26 27 27 27 27 28 28 28 29 30 30 31 31 31 32 32 32 32 33 33 34
34 35 36 37 38 39 39 40 41 41 41 41 41 41 41 41 41 41 41 41 42 42 42 42 42 41 40 38 37 36 35 34 33 32 32 31 31 30 30 29 29 28 27 27 26 26 26 26 26 27 27 27 27 27 28 28 29 30 30 30 31 31 31 32 32 32 32 33 33
35 36 37 38 38 39 40 40 41 41 41 40 40 40 40 40 41 41 41 41 42 42 42 41 41 40 38 37 35 34 33 33 32 31 31 30 30 29 29 28 28 27 26 26 26 26 26 26 26 27 27 26 27 27 27 28 28 29 30 30 31 31 32 32 32 32 32 32 32
Wind_Direction
284 283 284 284 284 284 284 284 284 284 283 283 284 285 286 286 287 288 289 289 290 291 291 292 292 292 292 292 292 292 292 291 291 291 290 290 290 290 290 290 290 290 289 289 288 287 287 286 286 285 284 284 283 283 282 282 281 281 280 280 279 279 278 278 277 276 276 276 275
284 284 284 284 285 285 285 284 284 283 283 283 283 284 285 286 287 288 289 290 290 291 291 292 292 292 292 292 292 292 292 291 291 291 291 291 291 291 291 290 290 289 289 288 288 287 287 286 286 285 285 284 284 283 283 283 282 282 281 280 280 280 279 279 278 278 277 277 276
284 284 284 285 285 285 284 284 283 283 282 282 282 283 284 285 287 288 289 289 290 291 291 291 292 292 292 293 293 292 292 292 292 292 292 291 291 291 291 290 290 289 289 288 288 287 287 287 286 286 285 285 284 284 284 283 283 282 282 281 281 281 280 279 279 278 278 277 276
285 285 285 285 284 284 283 283 283 282 281 281 282 282 283 285 286 287 288 289 289 290 291 291 292 292 293 293 293 293 293 293 293 293 292 292 292 291 291 290 290 290 289 289 288 288 288 287 287 286 286 285 285 284 284 284 284 283 283 282 282 281 281 280 280 279 279 278 277
285 285 285 285 284 283 283 282 281 281 281 281 282 283 283 284 285 286 286 287 288 289 290 291 292 293 294 294 294 294 294 294 294 293 293 293 292 292 291 291 290 290 290 290 289 289 288 288 287 287 286 286 285 285 285 285 284 284 283 283 282 282 281 281 280 280 279 278 278
285 285 285 284 283 282 282 281 281 281 281 281 282 283 283 284 284 285 286 287 288 289 290 291 293 294 294 295 295 295 295 295 295 294 293 293 292 292 292 291 291 291 291 291 290 290 289 289 288 287 287 286 286 285 285 285 284 284 283 283 283 282 282 281 281 280 280 279 278
284 284 283 283 282 281 281 281 280 281 281 282 283 283 284 284 284 285 285 286 287 289 290 292 293 294 295 295 296 296 296 296 295 294 294 293 293 292 292 292 292 292 292 292 291 291 290 289 288 288 287 287 286 286 285 285 285 284 284 283 283 283 282 282 281 281 280 279 279
283 282 281 281 281 280 280 280 281 281 282 283 283 284 284 284 284 285 285 286 288 289 291 292 294 295 295 296 296 296 296 295 295 294 294 293 293 293 293 293 293 293 293 292 292 291 290 290 289 288 288 287 287 287 286 286 285 284 284 283 283 283 282 282 281 281 280 279 279
281 280 280 280 280 280 280 281 282 282 283 284 284 284 285 285 285 286 286 288 289 290 292 293 294 295 296 296 296 296 296 295 295 294 294 294 294 294 294 294 294 293 293 293 292 291 290 290 289 289 288 288 288 287 287 286 286 285 284 284 283 283 282 281 281 280 280 279 279
281 280 280 280 280 280 281 282 283 284 284 285 285 285 285 286 286 287 288 289 291 292 293 294 295 296 296 297 296 296 296 295 295 295 295 295 295 295 295 295 295 294 294 293 293 292 291 290 290 289 289 288 288 287 287 287 286 285 284 284 283 283 282 281 280 280 279 279 278
282 281 281 281 281 282 283 284 284 285 285 285 286 286 287 287 288 290 291 292 293 294 295 295 296 297 297 297 297 296 296 296 296 296 296 296 296 296 296 296 295 295 294 293 293 292 291 291 290 289 289 288 288 287 287 286 286 285 284 284 283 283 282 281 281 280 280 279 279
284 284 284 284 284 285 285 285 286 286 286 286 287 288 289 290 291 292 293 293 294 295 296 296 297 297 297 297 297 297 297 296 297 297 297 297 297 297 296 296 295 295 294 293 293 292 291 291 290 289 289 288 288 287 287 286 286 285 284 284 284 283 283 282 281 281 281 280 280
287 287 287 287 287 287 287 287 287 287 287 288 288 290 291 291 292 293 293 294 295 296 296 297 297 297 297 297 297 297 297 297 297 297 297 297 297 297 296 296 295 294 294 293 292 292 291 290 289 289 288 288 287 287 287 286 286 285 285 285 284 283 283 283 282 282 281 281 280
290 290 289 289 288 288 287 287 288 288 289 289 290 291 292 292 293 293 294 295 295 296 297 297 297 297 297 297 297 297 297 297 298 298 298 297 297 297 296 296 295 294 294 293 292 291 291 290 289 289 288 288 288 287 287 287 286 286 285 285 284 284 283 283 283 282 282 281 280
293 291 290 289 289 288 288 288 289 290 290 291 291 292 292 292 293 294 295 296 296 297 297 297 297 296 296 297 297 297 298 298 298 298 298 298 297 297 296 296 295 294 294 293 292 291 291 290 290 289 289 288 288 288 287 287 287 286 286 285 285 284 284 283 283 282 282 281 281
292 291 290 290 289 289 289 290 290 290 291 291 291 292 293 294 295 296 296 297 297 297 297 296 296 297 297 297 298 298 298 298 298 298 298 298 298 297 296 296 295 294 294 293 292 292 291 291 290 290 290 289 289 288 288 287 287 286 286 285 285 284 284 283 283 282 282 281 280
292 291 290 290 290 290 290 290 290 291 291 291 292 293 295 296 297 297 297 297 297 297 296 296 297 297 297 298 298 299 299 299 299 299 298 298 298 297 296 296 295 294 294 293 293 292 292 292 291 291 290 290 289 289 288 288 287 287 286 286 285 284 284 283 283 282 282 281 280
291 291 290 290 290 290 290 291 291 291 292 293 295 296 297 297 298 298 298 297 297 297 296 297 297 298 298 298 299 299 299 299 299 299 298 298 297 297 296 295 295 294 294 293 293 293 292 292 291 291 291 290 290 289 289 288 287 287 286 286 285 284 284 283 283 282 281 281 280
291 291 291 291 291 291 291 291 292 293 294 295 297 297 298 298 298 298 297 297 297 297 297 297 298 298 299 299 299 300 300 299 299 299 298 297 297 296 296 295 294 294 294 293 293 292 292 292 291 291 291 290 290 289 289 288 287 287 286 285 285 284 284 283 282 282 281 280 279
291 291 291 291 291 291 292 293 294 295 296 297 298 298 298 298 298 297 297 297 297 297 298 298 299 299 300 300 300 300 300 300 299 298 298 297 297 296 295 295 294 294 293 293 293 292 292 292 291 291 291 290 290 289 289 288 287 287 286 285 285 284 284 283 282 281 280 278 277
292 291 291 291 291 292 293 294 295 296 297 298 298 298 298 298 298 297 297 298 298 298 299 299 299 300 300 300 300 300 300 300 299 298 298 297 297 296 295 295 294 294 293 293 293 292 292 292 292 291 291 291 290 289 289 288 288 287 286 285 285 284 283 282 281 280 278 277 275
292 291 291 291 292 293 294 295 296 297 297 298 298 298 298 298 298 298 298 298 299 299 300 300 300 300 301 301 301 301 300 300 299 299 298 297 297 296 295 295 294 294 294 293 293 293 293 293 292 292 291 291 290 290 289 288 288 287 286 285 284 283 282 281 279 278 276 275 274
291 291 291 291 292 293 295 296 297 297 298 298 298 298 298 298 299 299 299 300 300 300 300 301 301 301 301 301 301 301 300 300 299 298 298 297 296 296 295 295 295 294 294 294 294 294 294 293 293 293 292 291 291 290 289 288 287 287 286 285 284 282 281 279 278 276 275 274 273
290 290 291 292 293 294 295 297 297 298 298 299 299 299 299 299 300 300 300 301 301 301 301 301 302 302 302 302 301 301 300 300 299 298 298 297 297 296 296 295 295 295 295 295 295 295 294 294 294 293 292 291 290 290 289 288 287 286 285 284 283 281 280 278 277 276 274 273 272
290 290 291 292 294 295 296 297 298 298 299 299 299 300 300 301 301 301 302 302 302 302 302 302 302 302 302 302 302 301 300 300 299 298 298 297 297 297 296 296 296 296 296 296 295 295 294 294 293 292 291 290 290 289 288 287 287 286 285 283 282 281 279 278 277 276 274 273 273
290 291 292 294 295 296 297 298 298 299 299 300 301 301 302 302 302 303 303 303 303 303 303 303 303 303 303 302 302 301 300 300 299 299 298 298 298 297 297 297 297 297 296 296 295 295 294 293 292 292 291 290 289 288 288 287 286 285 284 282 281 280 279 278 277 276 275 274 273
291 292 294 296 297 297 298 299 299 300 301 301 302 303 303 304 304 304 304 304 304 304 304 304 304 303 303 302 301 301 300 300 299 299 299 298 298 298 298 297 297 297 297 296 296 295 294 293 292 291 290 290 289 288 288 287 286 284 283 282 280 279 278 277 276 276 275 274 273
292 294 296 297 297 298 299 300 301 301 302 303 303 304 305 305 305 305 305 305 305 305 305 304 304 304 303 302 302 301 301 300 300 300 300 299 299 298 298 298 298 297 297 297 296 295 294 293 292 291 290 289 289 288 287 286 285 284 282 281 280 279 278 277 277 276 275 274 273
294 296 297 298 298 299 300 301 302 303 303 304 305 306 306 306 306 306 306 306 305 305 305 305 304 304 303 302 302 302 302 301 301 301 300 300 299 299 299 298 298 298 297 297 296 295 294 293 292 291 290 289 289 288 287 285 284 283 282 281 280 279 278 278 277 276 276 275 274
296 297 298 299 300 301 302 302 303 304 305 306 307 307 308 308 307 307 307 306 306 305 305 305 304 304 303 303 303 302 302 302 302 302 301 301 300 300 299 299 299 298 298 297 296 295 294 293 292 291 291 289 288 287 286 285 284 283 282 281 281 280 279 278 278 277 276 276 275
298 299 300 300 301 302 303 304 305 306 307 308 308 308 308 308 308 307 307 306 306 306 305 305 304 303 303 303 303 303 303 303 303 302 302 301 301 300 300 300 299 299 298 297 296 295 294 294 293 292 291 289 288 287 286 285 284 283 283 282 281 281 280 279 279 278 277 276 276
300 300 301 301 302 303 304 305 306 307 308 309 309 309 308 308 308 307 307 307 306 306 305 305 304 304 304 304 304 304 303 303 303 303 302 302 301 301 300 300 299 298 298 297 296 296 295 294 293 292 291 289 288 287 286 285 285 284 283 283 282 281 281 280 280 279 278 277 277
301 302 302 302 303 304 305 306 307 308 309 309 309 309 308 308 308 308 307 307 307 306 305 305 305 305 305 305 305 304 304 304 303 303 302 302 301 301 301 300 299 298 298 297 297 296 296 294 293 292 291 290 289 288 287 286 286 285 284 284 283 283 282 281 281 280 279 279 278
302 303 303 303 305 306 307 308 308 309 309 309 309 308 308 308 308 308 308 307 307 306 306 306 306 306 305 305 305 305 305 304 304 303 303 302 302 301 301 300 299 299 298 298 297 297 296 294 293 292 291 291 290 289 288 287 286 286 285 285 284 284 283 283 282 281 281 280 279
304 304 304 305 306 307 308 308 309 309 309 309 309 308 308 308 308 308 308 307 307 307 306 306 306 306 306 306 306 306 305 305 304 304 303 303 302 301 301 300 299 299 299 299 298 297 296 295 294 293 292 292 291 290 289 288 287 287 286 286 286 285 285 284 284 283 282 281 280
305 305 306 307 307 308 308 309 309 309 309 309 309 309 309 309 308 308 308 308 307 307 307 307 307 307 307 307 307 306 306 305 305 304 303 303 302 301 301 300 300 300 300 299 298 297 296 296 295 294 293 293 292 291 290 289 289 288 288 287 287 287 286 286 285 284 284 283 282
306 307 307 308 308 309 309 309 309 309 309 309 309 309 309 309 309 309 309 309 308 308 308 308 308 308 308 308 307 307 306 305 305 304 304 303 302 302 301 301 301 301 300 299 299 298 297 297 296 295 294 294 293 292 291 291 290 290 290 289 289 288 288 287 287 286 285 284 282
307 308 308 309 309 309 309 309 309 309 309 309 309 309 309 309 309 309 309 309 309 309 309 309 309 309 308 308 308 307 306 305 305 304 304 303 303 302 302 301 301 301 301 300 299 299 298 297 296 296 295 295 294 294 293 293 292 292 292 291 290 290 289 289 288 287 286 285 283
308 309 309 309 309 309 309 309 309 309 309 309 309 310 310 310 310 310 310 310 310 310 310 310 310 309 309 309 308 307 306 306 305 304 304 303 303 303 302 301 301 301 301 300 300 299 298 298 297 297 296 296 296 295 295 294 294 293 293 292 292 291 291 290 290 289 288 286 285
309 309 310 309 309 309 309 309 309 309 309 310 310 310 310 310 310 311 311 311 310 310 310 310 310 310 309 309 308 307 306 306 305 305 304 304 303 303 302 301 301 301 301 301 300 299 299 298 298 298 298 298 297 297 296 296 295 295 294 294 294 293 293 292 291 290 289 287 286
310 310 310 309 309 309 309 309 309 310 310 310 311 311 311 311 311 311 311 311 311 311 311 311 311 310 310 309 308 307 307 306 306 305 305 304 304 303 302 302 301 301 301 301 300 300 299 299 299 299 299 299 298 297 297 297 296 296 296 296 296 295 295 294 293 291 290 288 287